EUTELSAT 33C

Last updated on Tue Mar 31 2020 04:58:47 GMT+0000 (Coordinated Universal Time)

1 26719U 01011A 20090.52835623 .00000078 00000-0 00000-0 0 9998 2 26719 1.7803 89.3155 0005078 282.6051 233.7887 1.00273528 69787
UTC large
Height (km)
Speed (km/s)
/
Latitude / Longitude
Inclination (degrees)
Orbital Period (minutes)
Azimuth
Elevation
Range (km)
Doppler Factor

Next 0 passes for location: London (51.5072 / 0.1276)

Sorry there are no passes over London.